Regional Weather Roundup
Issued by NWS Newport/Morehead, NC

Current Version | Previous Version | Text Only | Print | Product List | Glossary Off
Versions: 1 2 3 4 5 6 7 8 9 10 11 12 13 14 15 16 17 18 19 20 21 22 23 24 25 26 27 28 29 30 31 32 33 34 35 36 37 38 39 40 41 42 43 44 45 46 47 48 49 50
000 ASUS42 KMHX 270225 RWRMHX WEATHER ROUNDUP FOR EASTERN NORTH CAROLINA NATIONAL WEATHER SERVICE NEWPORT/MOREHEAD CITY NC 1000 PM EDT FRI AUG 26 2016 NOTE: "FAIR" INDICATES FEW OR NO CLOUDS BELOW 12,000 FEET WITH NO SIGNIFICANT WEATHER AND/OR OBSTRUCTIONS TO VISIBILITY NCZ015>017-031-032-045>047-102-103-270300- NORTH COAST CITY SKY/WX TMP DP RH WIND PRES REMARKS EDENTON CLEAR 83 73 70 S7 30.07S ELIZABETH CITY CLEAR 80 76 87 S7 30.06R KITTY HAWK CLEAR 81 76 86 S5 30.06R MANTEO CLEAR 82 75 80 SW10 30.08R $$ NCZ045>047-081-094-103-104-270300- CENTRAL COAST CITY SKY/WX TMP DP RH WIND PRES REMARKS FRISCO CLEAR 82 71 69 S7 30.08R $$ NCZ095-097-098-100-101-270300- SOUTHERN COAST CITY SKY/WX TMP DP RH WIND PRES REMARKS BEAUFORT CLEAR 80 71 74 SE5 30.07R CEDAR ISLAND NOT AVBL JACKSONVILLE CLEAR 77 72 84 CALM 30.07R PINEY ISLAND NOT AVBL WILMINGTON CLEAR 79 71 76 E3 30.07R $$ NCZ011>013-027>030-043-044-078>080-089-090>093-098-270300- COASTAL PLAIN CITY SKY/WX TMP DP RH WIND PRES REMARKS AHOSKIE CLEAR 77 76 96 CALM 30.07R CLINTON CLEAR 80 75 85 CALM 30.08R ELIZABETHTOWN CLEAR 80 75 83 CALM 30.08R HAZE GOLDSBORO CLEAR 83 78 86 S6 30.05S GREENVILLE CLEAR 82 73 74 S6 30.08R HAVELOCK CLEAR 78 71 79 CALM 30.09R KENANSVILLE CLEAR 79 73 83 CALM 30.08R KINSTON NOT AVBL NEW BERN CLEAR 77 72 84 CALM 30.09R RICHLANDS CLEAR 76 73 91 CALM 30.08R ROCKY MOUNT CLEAR 79 76 90 CALM 30.06R WASHINGTON CLEAR 81 75 81 S6 30.07R WHITEVILLE CLEAR 78 73 86 CALM 30.07R $$ AMZ130-135-150-152-154-156-158-170-250-252-270-ANZ085-086-088-633-658-670-270300- MARINE OBSERVATIONS STATION/POSITION TIME TEMP WIND PRES WAVE SWELL AIR SEA DIR/SP/G HT/PER HT/PER (UTC) (F) (DEG/KT/KT) (MB) (FT/S) (FT/S) CHESAPEAKE LIGHT NOT AVBL 64 E VA BEACH 0150 81 81 210/ 10/ 12 1017.8 2/ 8 2/ 8 DUCK 0200 82 78 1017.7 2 E DUCK 0111 80 N/A 2/ 8 OREGON INLET 0200 82 82 1018.4 13E OREGON INLT 0200 80 N/A 2/ 8 2/ 8 HATTERAS CG 0200 82 83 1018.3 DIAMOND BUOY 0150 82 85 140/ 4/ 6 1018.7 2/ 8 2/ 8 CAPE LOOKOUT 0200 81 140/ 6/ 8 1018.2 BEAUFORT LAB 0200 81 82 1017.8 30 SE NEW RVR IN 0208 82 84 110/ 6/ 10 1018.2 30 SE NEW RVR IN 0125 84 N/A 2/12 2/12 27 SE WRIGHTSVLE 0208 82 84 100/ 8/ 12 1018.3 5 SE WRIGHTSVLE 0108 82 84 130/ 8/ 12 1019.0 225 S CAPE HAT 0150 82 84 90/ 16/ 17 1016.3 5/10 5/10 41 SE CHARLESTON 0150 82 83 80/ 10/ 14 1017.3 3/ 8 2/ 8 $$

USA.gov is the U.S. government's official web portal to all federal, state and local government web resources and services.